This demonstration page uses our WeatherBlox Daily Observations layout. Learn more.

Left ArrowRight Arrow

41.55636, -103.73856

Hourly Observations for February 1, 2016

Temp ( °F °C ) Dew Point ( °F °C ) Humidity (%) Winds ( mph kmh ) Pressure ( in mb ) Visibility ( mi km ) Precip ( " mm )
12:53 am 00:53 Cloudy 26 -3.3 22 -5.6 84 84 ENE 7 11 29.89 1012 10 16.0934 N/A
1:53 am 01:53 Cloudy 28 -2.2 22 -5.6 78 78 E 7 11 29.88 1012 10 16.0934 N/A
2:53 am 02:53 Cloudy 28 -2.2 23 -5 81 81 SSE 6 9 29.88 1012 10 16.0934 N/A
3:53 am 03:53 Cloudy 28 -2.2 23 -5 81 81 E 7 11 29.86 1011 10 16.0934 N/A
4:53 am 04:53 Cloudy 29 -1.7 24 -4.4 82 82 E 6 9 29.88 1012 10 16.0934 N/A
5:29 am 05:29 Cloudy with Light Snow 29 -1.7 24 -4.4 82 82 ESE 10 17 29.97 1015 1.75 2.816345 N/A
5:53 am 05:53 Cloudy with Light Snow 28 -2.2 26 -3.3 92 92 ESE 8 13 29.89 1012 1.5 2.41401 N/A
6:53 am 06:53 Cloudy with Light Snow 29 -1.7 26 -3.3 89 89 E 10 17 29.89 1012 2 3.21868 0.03 0.762
7:17 am 07:17 Cloudy with Light Snow 29 -1.7 26 -3.3 89 89 E 12 19 29.94 1014 1.75 2.816345 N/A
7:38 am 07:38 Cloudy with Light Snow 28 -2 27 -3 93 93 E 13 20 29.94 1014 1.5 2.41401 N/A
7:47 am 07:47 Cloudy with Light Snow 28 -2 27 -3 93 93 E 13 20 29.94 1014 2 3.21868 0.01 0.254
7:48 am 07:48 Cloudy with Light Snow 29 -1.7 27 -2.8 92 92 E 14 22 29.88 1012 2 3.21868 0.01 0.254
8:08 am 08:08 Cloudy with Light Snow 28 -2 27 -3 93 93 E 15 24 29.94 1014 1.5 2.41401 N/A
8:53 am 08:53 Cloudy with Light Snow 30 -1.1 27 -2.8 88 88 E 15 24 29.87 1012 1 1.60934 N/A
9:36 am 09:36 Cloudy with Light Snow 30 -1 27 -3 86 86 ESE 18 30 29.91 1013 1 1.60934 N/A
9:53 am 09:53 Cloudy with Light Snow 30 -1.1 27 -2.8 88 88 ESE 18 30 29.87 1011 1 1.60934 0.02 0.508
10:05 am 10:05 Windy with Snow Likely 30 -1.1 27 -2.8 88 88 ESE 22 35 29.91 1013 0.75 1.207005 N/A
10:14 am 10:14 Cloudy with Snow 30 -1 28 -2 93 93 ESE 22 35 29.91 1013 0.5 0.80467 N/A
10:36 am 10:36 Windy with Snow Likely 30 -1 28 -2 93 93 ESE 21 33 29.88 1012 0.75 1.207005 N/A
10:44 am 10:44 Windy with Snow Likely 30 -1 27 -3 86 86 ESE 22 35 29.88 1012 1.25 2.011675 N/A
10:50 am 10:50 Windy with Snow Likely 30 -1 27 -3 86 86 ESE 23 37 29.88 1012 2 3.21868 N/A
10:51 am 10:51 Windy with Snow Likely 30 -1 27 -3 86 86 ESE 24 39 29.88 1012 2 3.21868 N/A
11:00 am 11:00 Windy with Snow Likely 30 -1 27 -3 86 86 ESE 23 37 29.88 1012 5 8.0467 N/A
11:07 am 11:07 Windy with Snow Likely 31 -0.6 27 -2.8 85 85 ESE 25 41 29.88 1012 5 8.0467 N/A
11:39 am 11:39 Windy with Snow Likely 31 -0.6 27 -2.8 85 85 ESE 24 39 29.85 1011 1.75 2.816345 N/A
11:46 am 11:46 Windy with Snow Likely 30 -1 27 -3 86 86 ESE 23 37 29.85 1011 3 4.82802 N/A
11:53 am 11:53 Windy with Snow Likely 31 -0.6 27 -2.8 85 85 ESE 28 44 29.81 1010 2 3.21868 N/A
12:01 pm 12:01 Windy with Snow Likely 31 -0.6 27 -2.8 85 85 ESE 25 41 29.85 1011 1.25 2.011675 N/A
12:14 pm 12:14 Windy with Snow Likely 30 -1 28 -2 93 93 ESE 26 43 29.85 1011 0.75 1.207005 N/A
12:33 pm 12:33 Windy with Snow Likely 31 -0.6 28 -2.2 89 89 ESE 25 41 29.83 1010 1.5 2.41401 N/A
12:39 pm 12:39 Windy with Snow Likely 31 -0.6 28 -2.2 89 89 ESE 22 35 29.83 1010 2.5 4.02335 N/A
12:44 pm 12:44 Windy with Snow Likely 30 -1 28 -2 93 93 ESE 25 41 29.83 1010 1.75 2.816345 N/A
12:53 pm 12:53 Windy with Snow Likely 31 -0.6 28 -2.2 89 89 ESE 25 41 29.78 1008 0.75 1.207005 N/A
1:12 pm 13:12 Windy with Snow Likely 30 -1 28 -2 93 93 ESE 26 43 29.83 1010 2 3.21868 N/A
1:25 pm 13:25 Windy with Snow Likely 31 -0.6 28 -2.2 89 89 ESE 24 39 29.83 1010 1.25 2.011675 0.01 0.254
1:40 pm 13:40 Windy with Snow Likely 30 -1 28 -2 93 93 E 25 41 29.83 1010 1 1.60934 N/A
1:53 pm 13:53 Windy with Snow Likely 31 -0.6 28 -2.2 89 89 E 24 39 29.76 1008 1.5 2.41401 0.01 0.254
2:11 pm 14:11 Windy with Snow Likely 31 -0.6 27 -2.8 85 85 ESE 26 43 29.83 1010 0.75 1.207005 N/A
2:23 pm 14:23 Windy with Snow Likely 31 -0.6 27 -2.8 85 85 ESE 26 43 29.83 1010 0.75 1.207005 N/A
2:34 pm 14:34 Cloudy with Snow 30 -1 27 -3 86 86 ESE 28 44 29.83 1010 0.5 0.80467 N/A
2:40 pm 14:40 Windy with Snow Likely 30 -1 27 -3 86 86 ESE 22 35 29.83 1010 1 1.60934 N/A
2:53 pm 14:53 Windy with Snow Likely 30 -1.1 27 -2.8 88 88 ESE 22 35 29.77 1008 1.25 2.011675 0.01 0.254
3:11 pm 15:11 Windy with Snow Likely 30 -1.1 27 -2.8 88 88 E 20 31 29.83 1010 0.75 1.207005 N/A
3:36 pm 15:36 Cloudy with Light Snow 30 -1 27 -3 86 86 ESE 17 28 29.83 1010 1 1.60934 N/A
3:39 pm 15:39 Cloudy with Light Snow 30 -1.1 27 -2.8 88 88 E 15 24 29.83 1010 0.75 1.207005 0.01 0.254
3:53 pm 15:53 Cloudy with Snow 30 -1.1 27 -2.8 88 88 E 21 33 29.79 1009 0.5 0.80467 0.01 0.254
4:03 pm 16:03 Mostly Cloudy with Snow 30 -1 27 -3 86 86 E 20 31 29.83 1010 0.5 0.80467 N/A
4:08 pm 16:08 Mostly Cloudy with Heavy Snow 30 -1 27 -3 86 86 E 16 26 29.83 1010 0.25 0.402335 N/A
4:18 pm 16:18 Mostly Cloudy with Light Snow 30 -1 27 -3 86 86 E 21 33 29.85 1011 0.5 0.80467 N/A
4:32 pm 16:32 Cloudy with Light Snow 30 -1 27 -3 86 86 E 18 30 29.85 1011 0.5 0.80467 N/A
4:53 pm 16:53 Sunny 34 1 18 -8 51 51 W 7 11 29.94 1014 10 16.0934 N/A
5:25 pm 17:25 Cloudy with Light Snow 29 -1.7 27 -2.8 92 92 E 18 30 29.91 1013 1 1.60934 0.01 0.254
5:32 pm 17:32 Windy with Snow Likely 28 -2 27 -3 93 93 E 22 35 29.91 1013 0.75 1.207005 N/A
5:48 pm 17:48 Mostly Cloudy with Light Snow 28 -2 27 -3 93 93 E 23 37 29.91 1013 1 1.60934 N/A
5:53 pm 17:53 Mostly Cloudy with Light Snow 29 -1.7 26 -3.3 89 89 E 21 33 29.84 1010 1 1.60934 0.02 0.508
6:03 pm 18:03 Windy with Snow Likely 28 -2 27 -3 93 93 E 26 43 29.91 1013 1 1.60934 N/A
6:12 pm 18:12 Windy with Snow Likely 28 -2 27 -3 93 93 E 25 41 29.91 1013 1.25 2.011675 N/A
6:32 pm 18:32 Mostly Cloudy with Light Snow 28 -2 27 -3 93 93 E 14 22 29.91 1013 0.75 1.207005 N/A
6:34 pm 18:34 Cloudy with Light Snow 28 -2 27 -3 93 93 E 13 20 29.91 1013 1 1.60934 N/A
6:39 pm 18:39 Cloudy with Light Snow 29 -1.7 26 -3.3 89 89 E 17 28 29.91 1013 0.75 1.207005 0.02 0.508
6:53 pm 18:53 Windy with Snow Likely 28 -2.2 26 -3.3 92 92 E 20 31 29.85 1011 0.75 1.207005 0.03 0.762
7:00 pm 19:00 Cloudy with Light Snow 28 -2 27 -3 93 93 E 16 26 29.91 1013 1 1.60934 N/A
7:44 pm 19:44 Windy with Snow Likely 28 -2 25 -4 86 86 E 25 41 29.94 1014 1.75 2.816345 N/A
7:53 pm 19:53 Windy with Snow Likely 28 -2.2 24 -4.4 85 85 E 20 31 29.87 1012 2 3.21868 0.02 0.508
8:02 pm 20:02 Cloudy with Light Snow 28 -2 25 -4 86 86 E 18 30 29.94 1014 3 4.82802 N/A
8:11 pm 20:11 Cloudy with Light Snow 27 -2.8 24 -4.4 89 89 ESE 17 28 29.94 1014 1.75 2.816345 0.01 0.254
8:32 pm 20:32 Cloudy with Light Snow 27 -3 25 -4 93 93 E 13 20 29.94 1014 1 1.60934 N/A
8:44 pm 20:44 Mostly Cloudy with Light Snow 27 -3 25 -4 93 93 E 10 17 29.94 1014 0.75 1.207005 N/A
8:53 pm 20:53 Mostly Cloudy with Light Snow 27 -2.8 25 -3.9 92 92 E 10 17 29.88 1012 0.75 1.207005 0.03 0.762
9:26 pm 21:26 Mostly Cloudy with Light Snow 27 -3 25 -4 93 93 E 13 20 29.94 1014 1 1.60934 N/A
9:45 pm 21:45 Windy with Snow Likely 27 -2.8 24 -4.4 89 89 E 20 31 29.97 1015 1.25 2.011675 0.03 0.762
9:53 pm 21:53 Windy with Snow Likely 28 -2.2 24 -4.4 85 85 E 22 35 29.89 1012 1.25 2.011675 0.03 0.762
10:17 pm 22:17 Mostly Cloudy with Light Snow 27 -2.8 23 -5 85 85 E 23 37 29.94 1014 1 1.60934 N/A
10:33 pm 22:33 Mostly Cloudy with Light Snow 27 -2.8 23 -5 85 85 E 21 33 29.97 1015 0.75 1.207005 N/A
10:49 pm 22:49 Mostly Cloudy with Light Snow 27 -3 25 -4 93 93 E 14 22 29.97 1015 1 1.60934 0.02 0.508
10:53 pm 22:53 Mostly Cloudy with Light Snow 27 -2.8 24 -4.4 89 89 E 13 20 29.9 1013 1 1.60934 0.02 0.508
11:14 pm 23:14 Mostly Cloudy with Light Snow 27 -3 23 -5 86 86 E 16 26 29.97 1015 0.75 1.207005 N/A
11:24 pm 23:24 Mostly Cloudy with Light Snow 27 -3 25 -4 93 93 E 10 17 29.97 1015 1 1.60934 N/A
11:34 pm 23:34 Cloudy with Light Snow 27 -3 25 -4 93 93 E 12 19 29.97 1015 1.75 2.816345 N/A
11:42 pm 23:42 Cloudy with Light Snow 27 -3 25 -4 93 93 ENE 9 15 29.97 1015 2 3.21868 N/A
11:53 pm 23:53 Cloudy with Light Snow 26 -3.3 23 -5 88 88 E 9 15 29.9 1012 3 4.82802 0.02 0.508
11:58 pm 23:58 Cloudy with Light Snow 27 -3 23 -5 86 86 ENE 10 17 29.97 1015 2 3.21868 N/A

Powered by AerisWeather